Regional Weather Roundup
Issued by NWS

Home | Current Version | Previous Version | Graphics & Text | Print | Product List | Glossary On
Versions: 1 2 3 4 5 6 7 8 9 10 11 12 13 14 15 16 17 18 19 20 21 22 23 24 25 26 27 28 29 30 31 32 33 34 35 36 37 38 39 40 41 42 43 44 45 46 47 48 49 50
000
ASUS43 KFSD 010810
RWRSD

WEATHER ROUNDUP FOR SOUTH DAKOTA
NATIONAL WEATHER SERVICE SIOUX FALLS SD
300 AM CDT WED OCT 01 2014

NOTE: "FAIR" INDICATES FEW OR NO CLOUDS BELOW 12,000 FEET WITH NO
SIGNIFICANT WEATHER AND/OR OBSTRUCTIONS TO VISIBILITY.


SDZ001>005-009-010-012>017-010900-
NORTHWEST AND NORTH CENTRAL SOUTH DAKOTA

CITY           SKY/WX    TMP DP  RH WIND       PRES   REMARKS
BUFFALO          N/A     50  47  89 W12       29.62R
FAITH            N/A     56  48  74 W18       29.66R
MOBRIDGE       PTCLDY    56  52  86 S8        29.59R
$$

SDZ012>016-024>037-041>051-057-063-072>074-010900-
SOUTHWEST AND SOUTH CENTRAL SOUTH DAKOTA

CITY           SKY/WX    TMP DP  RH WIND       PRES   REMARKS
RAPID CTY ARPT CLOUDY    52  46  80 NW6       29.74R
PIERRE         PTCLDY    55  48  77 SW7       29.66R
CUSTER         MOCLDY    44  40  85 CALM      29.81R
ELLSWORTH AFB  CLOUDY    53  46  77 NW3       29.74R
PHILIP         MOCLDY    50  46  86 W5        29.70R
PINE RIDGE     CLOUDY    52  47  83 W5        29.77R
WINNER         FAIR      56  46  69 NW3       29.69F
$$

SDZ004>011-016>023-039-040-010900-
NORTHEAST SOUTH DAKOTA

CITY           SKY/WX    TMP DP  RH WIND       PRES   REMARKS
ABERDEEN       CLEAR     57  50  77 S13       29.64R
WATERTOWN      PTCLDY    60  58  92 S12       29.68F
SISSETON         N/A     62  59  90 SW15G25   29.63F
$$

SDZ017-020-022-023-036>040-048>070-010900-
SOUTHEAST SOUTH DAKOTA

CITY           SKY/WX    TMP DP  RH WIND       PRES   REMARKS
SIOUX FALLS    CLOUDY    62  60  93 S13       29.74S
HURON          CLOUDY    62  60  93 SW5       29.68R
CHAMBERLAIN    MOCLDY    51  47  87 CALM      29.68S
MITCHELL       PTCLDY    62  60  93 S12       29.69R
YANKTON        CLOUDY    64  61  88 S9        29.72S
$$

ABBREVIATIONS USED IN REMARKS
   TC - TEMPERATURE IN CELSIUS
  WCI - WIND CHILL INDEX
   HX - HEAT INDEX
  VSB - VISIBILITY



USA.gov is the U.S. government's official web portal to all federal, state and local government web resources and services.